This is the latest recevied weather packets stored in our database for station/object AA8FM-13. If no packets are shown the sender has not sent any weather packets the latest 10 day(s).
| Time | Temp. | Humidity | Pressure | Rain* | Wind** | Luminosity | Snow |
|---|---|---|---|---|---|---|---|
| 1778085595 | 15.56° C | 99% | 1006.7 hPa | 0 mm | - | 82 W/m² | - |
| 1778085289 | 15.56° C | 99% | 1006.3 hPa | 0 mm | - | 74 W/m² | - |
| 1778084979 | 15.56° C | 99% | 1006.5 hPa | 0 mm | - | 68 W/m² | - |
| 1778084677 | 15.56° C | 99% | 1006.4 hPa | 1.27 mm | - | 58 W/m² | - |
| 1778084374 | 15.56° C | 99% | 1006.4 hPa | 1.27 mm | - | 72 W/m² | - |
| 1778084071 | 15.56° C | 99% | 1006.2 hPa | 0 mm | - | 56 W/m² | - |
| 1778083763 | 15.56° C | 99% | 1006.5 hPa | 0 mm | - | 72 W/m² | - |
| 1778083460 | 15.56° C | 99% | 1006.3 hPa | 0 mm | - | 108 W/m² | - |
| 1778083158 | 15.56° C | 99% | 1006.3 hPa | 0 mm | - | 75 W/m² | - |
| 1778082854 | 15° C | 99% | 1006.2 hPa | 0 mm | - | 81 W/m² | - |
| 1778081731 | 15° C | 99% | 1006.1 hPa | 0 mm | - | 88 W/m² | - |
| 1778081429 | 15° C | 99% | 1006 hPa | 0 mm | - | 84 W/m² | - |
| 1778081125 | 15° C | 99% | 1006.1 hPa | 1.78 mm | - | 76 W/m² | - |
| 1778080824 | 15° C | 99% | 1005.8 hPa | 1.78 mm | - | 77 W/m² | - |
| 1778080521 | 15° C | 99% | 1005.7 hPa | 1.27 mm | - | 48 W/m² | - |
| 1778080218 | 15° C | 99% | 1005.6 hPa | 1.27 mm | - | 42 W/m² | - |
| 1778079914 | 15° C | 99% | 1005.7 hPa | 0 mm | - | 31 W/m² | - |
| 1778079612 | 15° C | 99% | 1005.6 hPa | 0 mm | - | 45 W/m² | - |
| 1778079308 | 15° C | 99% | 1005.6 hPa | 0 mm | - | 52 W/m² | - |
| 1778079006 | 15° C | 99% | 1005.5 hPa | 0 mm | - | 43 W/m² | - |
| 1778078702 | 15° C | 99% | 1005.5 hPa | 0 mm | - | 30 W/m² | - |
| 1778078400 | 15° C | 99% | 1005.4 hPa | 0 mm | - | 27 W/m² | - |
| 1778078097 | 15° C | 99% | 1005.4 hPa | 0 mm | - | 30 W/m² | - |
| 1778077795 | 15° C | 99% | 1005.4 hPa | 0 mm | - | 39 W/m² | - |
| 1778077493 | 15° C | 99% | 1005.2 hPa | 0 mm | - | 45 W/m² | - |
* Rain latest hour (hover to see other rain measurements)
** Current wind speed in m/s (hover to see current wind gust speed)